Airport METAR Information

LTBA 132350Z 20008KT 9999 SCT035 SCT100 12/10 Q1002 NOSIG

VATSIM Livefeed

Card image cap

ATC Bookings

No position booked

Card image cap

Active ATC

No controllers online

Blog

Read our latest news and get to know us better.